Neige/verglas Valable du: 14-12-2018 20:59 Au: 15-12-2018 09:59 Avertissement pour: Neige/verglas Niveau: Jaune info button
nederlands:
Rijmplekken :vannacht moet men opnieuw rekening houden met rijmplekken.Winterse neerslag : zaterdagavond en in de nacht naar zondag trekt een storing van west naar oost over het land met eerst (smeltende) sneeuw of tijdelijk zelfs aanvriezende regen, later overgaand in regen. In de Ardennen valt er waarschijnlijk eerst sneeuw, later aanvriezende regen.

français:
Plaques de givre :des plaques de givre pourront se former par endroits en cours de nuit prochaine.Precipitations hivernales :samedi soir et la nuit de samedi a dimanche, une perturbation traversera le pays d'ouest en est avec, dans un premier temps, de la neige (fondante) ou meme temporairement des pluies verglacantes et ensuite, uniquement de la pluie. En Ardenne, il s'agira probablement d'abord de neige puis, de pluies verglacantes. 



Thunder radar more information blitzortung!


d'avertissement pour neige et la glace more information rain snow radar


Visitez nos sites météorologiques autres:

Template documentation
and downloads

And another site



Weather Underground Historique Text

par jour Résumé pour décembre 14, 2018 Les unités:  métriques    impériales   les deux
« Précédente Jour
Suivant Jour »
par jour Par semaine mensuel Annuel personnalisé
  actuel: élevé: Basse: Moyenne:
Température: -18.1 °C -17.8 °C -18.8 °C -18 °C
Point de rosée: -20.4 °C -17.8 °C -20.4 °C -20.1 °C
Humidité: 74 % Humidity % 70 % 76 %
Vitesse du vent: 0 km/h 0 km/h 0 km/h 1.1 km/h
Rafale de vent: 2.6 km/h 0 km/h - -
Vent:Calm - - ENE
Pression baro: 34703.1 hPa 0 hPa 34533.8 hPa -
Précipitations: 0 mm      
Historical Graphs
 
 
Les données tabulaires pour décembre 14, 2018
Temps Température Point de rosée Pression baro Vent Vitesse du vent Rafale de vent Humidité Les précipitations (horaires)
-17.8 °C -17.8 °C 0 hPa Calm     Humidity % 0 mm
00:04 -18.6 °C -20.2 °C 34544 hPa Calm   10.3 km/h 80 % 0 mm
00:09 -18.6 °C -20.2 °C 34544 hPa ENE 2.6 km/h 10.3 km/h 80 % 0 mm
00:14 -18.6 °C -20.2 °C 34544 hPa Calm   10.3 km/h 80 % 0 mm
00:19 -18.6 °C -20.2 °C 34544 hPa Calm   10.3 km/h 80 % 0 mm
00:24 -18.6 °C -20.2 °C 34544 hPa Calm   7.7 km/h 80 % 0 mm
00:29 -18.6 °C -20.2 °C 34544 hPa Calm   7.7 km/h 80 % 0 mm
00:34 -18.6 °C -20.2 °C 34544 hPa Calm   7.7 km/h 80 % 0 mm
00:39 -18.6 °C -20.2 °C 34554.1 hPa Calm   5.1 km/h 80 % 0 mm
00:44 -18.6 °C -20.2 °C 34544 hPa Calm   5.1 km/h 80 % 0 mm
00:49 -18.6 °C -20.2 °C 34544 hPa Calm   7.7 km/h 80 % 0 mm
00:54 -18.6 °C -20.2 °C 34544 hPa Calm   7.7 km/h 80 % 0 mm
00:59 -18.6 °C -20.2 °C 34544 hPa Calm   7.7 km/h 80 % 0 mm
01:04 -18.6 °C -20.2 °C 34544 hPa Calm   2.6 km/h 80 % 0 mm
01:09 -18.6 °C -20.2 °C 34544 hPa Calm   7.7 km/h 80 % 0 mm
01:14 -18.6 °C -20.3 °C 34544 hPa Calm   7.7 km/h 80 % 0 mm
01:19 -18.6 °C -20.3 °C 34533.8 hPa Calm   7.7 km/h 80 % 0 mm
01:24 -18.6 °C -20.3 °C 34533.8 hPa Calm   15.6 km/h 80 % 0 mm
01:29 -18.6 °C -20.3 °C 34544 hPa Calm   15.6 km/h 80 % 0 mm
01:34 -18.6 °C -20.4 °C 34544 hPa Calm   15.6 km/h 79 % 0 mm
01:39 -18.7 °C -20.4 °C 34544 hPa Calm   7.7 km/h 79 % 0 mm
01:44 -18.7 °C -20.4 °C 34544 hPa Calm   7.7 km/h 79 % 0 mm
01:49 -18.7 °C -20.4 °C 34544 hPa Calm   5.1 km/h 79 % 0 mm
01:54 -18.7 °C -20.4 °C 34544 hPa Calm   5.1 km/h 79 % 0 mm
01:59 -18.7 °C -20.3 °C 34544 hPa Calm   7.7 km/h 80 % 0 mm
02:04 -18.7 °C -20.3 °C 34554.1 hPa Calm   7.7 km/h 80 % 0 mm
02:09 -18.7 °C -20.4 °C 34554.1 hPa Calm   7.7 km/h 80 % 0 mm
02:14 -18.7 °C -20.4 °C 34554.1 hPa Calm   5.1 km/h 80 % 0 mm
02:19 -18.7 °C -20.4 °C 34554.1 hPa Calm     80 % 0 mm
02:24 -18.7 °C -20.4 °C 34554.1 hPa Calm     80 % 0 mm
02:29 -18.8 °C -20.4 °C 34554.1 hPa Calm     80 % 0 mm
02:34 -18.8 °C -20.4 °C 34554.1 hPa Calm     80 % 0 mm
02:39 -18.8 °C -20.4 °C 34554.1 hPa Calm     80 % 0 mm
02:44 -18.8 °C -20.3 °C 34554.1 hPa Calm     81 % 0 mm
02:49 -18.8 °C -20.4 °C 34554.1 hPa Calm     81 % 0 mm
02:54 -18.8 °C -20.4 °C 34554.1 hPa Calm     81 % 0 mm
02:59 -18.8 °C -20.4 °C 34554.1 hPa Calm     81 % 0 mm
03:04 -18.8 °C -20.3 °C 34554.1 hPa East 5.1 km/h   82 % 0 mm
03:09 -18.8 °C -20.3 °C 34554.1 hPa Calm   5.1 km/h 82 % 0 mm
03:14 -18.8 °C -20.3 °C 34554.1 hPa Calm   5.1 km/h 82 % 0 mm
03:19 -18.8 °C -20.3 °C 34544 hPa Calm   7.7 km/h 82 % 0 mm
03:24 -18.7 °C -20.2 °C 34544 hPa Calm   7.7 km/h 82 % 0 mm
03:29 -18.6 °C -20.1 °C 34544 hPa Calm   18.2 km/h 82 % 0 mm
03:34 -18.6 °C -20.1 °C 34544 hPa Calm   18.2 km/h 81 % 0 mm
03:39 -18.5 °C -20.1 °C 34554.1 hPa Calm   18.2 km/h 81 % 0 mm
03:44 -18.5 °C -20.1 °C 34544 hPa Calm   10.3 km/h 81 % 0 mm
03:49 -18.4 °C -20 °C 34544 hPa ENE 5.1 km/h 12.9 km/h 81 % 0 mm
03:54 -18.4 °C -20.1 °C 34544 hPa SW 2.6 km/h 12.9 km/h 80 % 0 mm
03:59 -18.3 °C -19.9 °C 34544 hPa Calm   15.6 km/h 80 % 0 mm
04:04 -18.2 °C -19.9 °C 34544 hPa ENE 5.1 km/h 23.3 km/h 80 % 0 mm
04:09 -18.2 °C -20 °C 34544 hPa NE 2.6 km/h 23.3 km/h 79 % 0 mm
04:14 -18.2 °C -19.9 °C 34544 hPa Calm   23.3 km/h 79 % 0 mm
04:19 -18.2 °C -19.9 °C 34544 hPa ENE 10.3 km/h 20.8 km/h 79 % 0 mm
04:24 -18.2 °C -19.9 °C 34544 hPa ENE 10.3 km/h 20.8 km/h 79 % 0 mm
04:29 -18.1 °C -20 °C 34544 hPa NE 2.6 km/h 23.3 km/h 78 % 0 mm
04:34 -18.1 °C -19.9 °C 34544 hPa ENE 5.1 km/h 23.3 km/h 78 % 0 mm
04:39 -18.1 °C -19.9 °C 34544 hPa Calm   23.3 km/h 78 % 0 mm
04:44 -18.1 °C -19.9 °C 34544 hPa ENE 10.3 km/h 23.3 km/h 78 % 0 mm
04:49 -18.1 °C -20 °C 34544 hPa Calm   23.3 km/h 78 % 0 mm
04:54 -18.1 °C -20 °C 34544 hPa NNE 7.7 km/h 23.3 km/h 78 % 0 mm
04:59 -18.1 °C -20 °C 34554.1 hPa ENE 12.9 km/h 23.3 km/h 78 % 0 mm
05:04 -18.1 °C -20 °C 34554.1 hPa Calm   18.2 km/h 78 % 0 mm
05:09 -18.2 °C -20.1 °C 34544 hPa East 7.7 km/h 15.6 km/h 78 % 0 mm
05:14 -18.2 °C -20.1 °C 34544 hPa Calm   15.6 km/h 78 % 0 mm
05:19 -18.2 °C -20.1 °C 34544 hPa Calm   10.3 km/h 78 % 0 mm
05:24 -18.2 °C -20.1 °C 34554.1 hPa Calm   10.3 km/h 78 % 0 mm
05:29 -18.2 °C -20.1 °C 34554.1 hPa Calm   10.3 km/h 78 % 0 mm
05:34 -18.2 °C -20.1 °C 34554.1 hPa Calm   7.7 km/h 78 % 0 mm
05:39 -18.2 °C -20.1 °C 34554.1 hPa Calm   12.9 km/h 78 % 0 mm
05:44 -18.2 °C -20.1 °C 34554.1 hPa Calm   12.9 km/h 78 % 0 mm
05:49 -18.2 °C -19.9 °C 34554.1 hPa Calm   12.9 km/h 79 % 0 mm
05:54 -18.2 °C -20.1 °C 34544 hPa Calm   10.3 km/h 78 % 0 mm
05:59 -18.2 °C -19.9 °C 34544 hPa Calm   7.7 km/h 79 % 0 mm
06:04 -18.2 °C -19.9 °C 34544 hPa Calm   7.7 km/h 79 % 0 mm
06:09 -18.2 °C -19.9 °C 34544 hPa NE 2.6 km/h 10.3 km/h 79 % 0 mm
06:14 -18.2 °C -19.9 °C 34554.1 hPa Calm   10.3 km/h 79 % 0 mm
06:19 -18.2 °C -19.9 °C 34554.1 hPa Calm   10.3 km/h 79 % 0 mm
06:24 -18.2 °C -20.1 °C 34554.1 hPa NE 2.6 km/h 10.3 km/h 78 % 0 mm
06:29 -18.2 °C -20.1 °C 34544 hPa Calm   15.6 km/h 78 % 0 mm
06:34 -18.2 °C -20.1 °C 34554.1 hPa NE 2.6 km/h 15.6 km/h 78 % 0 mm
06:39 -18.1 °C -20 °C 34554.1 hPa ENE 2.6 km/h 15.6 km/h 78 % 0 mm
06:44 -18.1 °C -20 °C 34554.1 hPa ENE 2.6 km/h 15.6 km/h 78 % 0 mm
06:49 -18.1 °C -20 °C 34554.1 hPa ENE 7.7 km/h 15.6 km/h 78 % 0 mm
06:54 -18.1 °C -20 °C 34554.1 hPa ENE 7.7 km/h 20.8 km/h 78 % 0 mm
06:59 -18.1 °C -19.9 °C 34554.1 hPa NE 5.1 km/h 20.8 km/h 78 % 0 mm
07:04 -18.1 °C -19.9 °C 34554.1 hPa Calm   20.8 km/h 78 % 0 mm
07:09 -18.1 °C -19.9 °C 34554.1 hPa Calm   12.9 km/h 78 % 0 mm
07:14 -18.1 °C -19.9 °C 34554.1 hPa East 2.6 km/h 10.3 km/h 78 % 0 mm
07:19 -18.1 °C -19.9 °C 34567.7 hPa Calm   15.6 km/h 78 % 0 mm
07:24 -18.1 °C -19.8 °C 34567.7 hPa East 2.6 km/h 18.2 km/h 79 % 0 mm
07:29 -18.1 °C -19.9 °C 34567.7 hPa Calm   18.2 km/h 78 % 0 mm
07:34 -18 °C -19.8 °C 34567.7 hPa Calm   18.2 km/h 79 % 0 mm
07:39 -18 °C -19.8 °C 34567.7 hPa ESE 5.1 km/h 18.2 km/h 79 % 0 mm
07:44 -18 °C -19.8 °C 34567.7 hPa Calm   18.2 km/h 79 % 0 mm
07:49 -18 °C -19.8 °C 34577.8 hPa Calm   10.3 km/h 79 % 0 mm
07:54 -18 °C -19.8 °C 34577.8 hPa ENE 10.3 km/h 18.2 km/h 79 % 0 mm
07:59 -18 °C -19.9 °C 34577.8 hPa NE 2.6 km/h 20.8 km/h 78 % 0 mm
08:04 -18 °C -19.9 °C 34577.8 hPa NNE 5.1 km/h 20.8 km/h 78 % 0 mm
08:09 -18 °C -19.9 °C 34591.4 hPa Calm   20.8 km/h 78 % 0 mm
08:14 -18 °C -19.9 °C 34577.8 hPa Calm   12.9 km/h 78 % 0 mm
08:19 -18 °C -19.9 °C 34591.4 hPa East 2.6 km/h 12.9 km/h 78 % 0 mm
08:24 -18 °C -19.9 °C 34591.4 hPa Calm   12.9 km/h 78 % 0 mm
08:29 -18 °C -19.8 °C 34591.4 hPa Calm   7.7 km/h 79 % 0 mm
08:34 -18 °C -19.9 °C 34591.4 hPa Calm   7.7 km/h 78 % 0 mm
08:39 -18 °C -19.9 °C 34601.5 hPa Calm   12.9 km/h 78 % 0 mm
08:44 -18 °C -19.9 °C 34601.5 hPa Calm   12.9 km/h 78 % 0 mm
08:49 -18 °C -19.9 °C 34601.5 hPa ENE 5.1 km/h 12.9 km/h 77 % 0 mm
08:54 -17.9 °C -19.9 °C 34601.5 hPa NE 7.7 km/h 15.6 km/h 77 % 0 mm
08:59 -17.9 °C -19.9 °C 34601.5 hPa Calm   15.6 km/h 77 % 0 mm
09:04 -17.9 °C -19.8 °C 34601.5 hPa Calm   15.6 km/h 78 % 0 mm
09:09 -17.9 °C -19.8 °C 34611.7 hPa Calm   12.9 km/h 78 % 0 mm
09:14 -17.9 °C -19.8 °C 34611.7 hPa NE 5.1 km/h 7.7 km/h 78 % 0 mm
09:19 -18 °C -19.9 °C 34611.7 hPa ENE 5.1 km/h 12.9 km/h 78 % 0 mm
09:24 -18 °C -19.9 °C 34611.7 hPa Calm   12.9 km/h 78 % 0 mm
09:29 -18 °C -19.9 °C 34611.7 hPa Calm   12.9 km/h 78 % 0 mm
09:34 -18 °C -19.9 °C 34611.7 hPa Calm   12.9 km/h 78 % 0 mm
09:39 -17.9 °C -19.8 °C 34611.7 hPa Calm   12.9 km/h 78 % 0 mm
09:44 -17.9 °C -19.8 °C 34625.2 hPa Calm   12.9 km/h 78 % 0 mm
09:49 -17.9 °C -19.8 °C 34625.2 hPa Calm   7.7 km/h 78 % 0 mm
09:54 -17.9 °C -19.8 °C 34625.2 hPa Calm   7.7 km/h 78 % 0 mm
09:59 -17.9 °C -19.8 °C 34611.7 hPa Calm   7.7 km/h 78 % 0 mm
10:04 -17.9 °C -19.8 °C 34625.2 hPa Calm   7.7 km/h 78 % 0 mm
10:09 -17.9 °C -19.8 °C 34625.2 hPa Calm   7.7 km/h 78 % 0 mm
10:14 -17.9 °C -19.8 °C 34625.2 hPa Calm   12.9 km/h 78 % 0 mm
10:19 -17.9 °C -19.8 °C 34625.2 hPa Calm   12.9 km/h 77 % 0 mm
10:24 -17.9 °C -19.8 °C 34625.2 hPa Calm   12.9 km/h 78 % 0 mm
10:29 -17.9 °C -19.8 °C 34625.2 hPa Calm   7.7 km/h 77 % 0 mm
10:34 -17.9 °C -19.8 °C 34625.2 hPa ENE 2.6 km/h 7.7 km/h 77 % 0 mm
10:39 -17.8 °C -19.8 °C 34625.2 hPa Calm   7.7 km/h 77 % 0 mm
10:44 -17.8 °C -19.8 °C 34625.2 hPa Calm   7.7 km/h 77 % 0 mm
10:49 -17.8 °C -19.8 °C 34625.2 hPa ENE 7.7 km/h 7.7 km/h 77 % 0 mm
10:54 -17.8 °C -19.9 °C 34625.2 hPa Calm   12.9 km/h 76 % 0 mm
10:59 -17.7 °C -19.8 °C 34625.2 hPa ENE 5.1 km/h 12.9 km/h 76 % 0 mm
11:04 -17.7 °C -19.8 °C 34625.2 hPa Calm   12.9 km/h 76 % 0 mm
11:09 -17.7 °C -19.8 °C 34625.2 hPa ESE 5.1 km/h 12.9 km/h 76 % 0 mm
11:14 -17.7 °C -19.7 °C 34625.2 hPa ENE 5.1 km/h 12.9 km/h 76 % 0 mm
11:19 -17.7 °C -19.7 °C 34625.2 hPa Calm   10.3 km/h 76 % 0 mm
11:24 -17.7 °C -19.7 °C 34611.7 hPa Calm   10.3 km/h 76 % 0 mm
11:29 -17.6 °C -19.7 °C 34611.7 hPa Calm   7.7 km/h 76 % 0 mm
11:34 -17.6 °C -19.9 °C 34611.7 hPa ESE 7.7 km/h 10.3 km/h 74 % 0 mm
11:39 -17.6 °C -19.8 °C 34611.7 hPa NNE 2.6 km/h 10.3 km/h 74 % 0 mm
11:44 -17.5 °C -19.8 °C 34611.7 hPa Calm   10.3 km/h 74 % 0 mm
11:49 -17.4 °C -19.8 °C 34611.7 hPa Calm   10.3 km/h 73 % 0 mm
11:54 -17.4 °C -19.8 °C 34611.7 hPa Calm   10.3 km/h 73 % 0 mm
11:59 -17.4 °C -19.8 °C 34611.7 hPa Calm   10.3 km/h 73 % 0 mm
12:04 -17.3 °C -19.7 °C 34611.7 hPa Calm   10.3 km/h 73 % 0 mm
12:09 -17.3 °C -19.7 °C 34611.7 hPa Calm   10.3 km/h 73 % 0 mm
12:14 -17.3 °C -19.7 °C 34611.7 hPa Calm   5.1 km/h 73 % 0 mm
12:19 -17.3 °C -19.7 °C 34611.7 hPa Calm   5.1 km/h 73 % 0 mm
12:24 -17.3 °C -19.8 °C 34611.7 hPa Calm   10.3 km/h 72 % 0 mm
12:29 -17.3 °C -19.9 °C 34611.7 hPa East 7.7 km/h 12.9 km/h 71 % 0 mm
12:34 -17.3 °C -19.9 °C 34611.7 hPa Calm   12.9 km/h 71 % 0 mm
12:39 -17.2 °C -19.7 °C 34601.5 hPa SE 5.1 km/h 12.9 km/h 72 % 0 mm
12:44 -17.2 °C -19.9 °C 34601.5 hPa Calm   10.3 km/h 70 % 0 mm
12:49 -17.2 °C -19.9 °C 34601.5 hPa NNE 7.7 km/h 10.3 km/h 70 % 0 mm
12:54 -17.3 °C -20 °C 34601.5 hPa SE 7.7 km/h 12.9 km/h 70 % 0 mm
12:59 -17.4 °C -20 °C 34601.5 hPa Calm   12.9 km/h 71 % 0 mm
13:04 -17.4 °C -19.9 °C 34601.5 hPa Calm   12.9 km/h 72 % 0 mm
13:09 -17.5 °C -20 °C 34601.5 hPa Calm   12.9 km/h 72 % 0 mm
13:14 -17.6 °C -20.1 °C 34601.5 hPa Calm   10.3 km/h 72 % 0 mm
13:19 -17.6 °C -19.9 °C 34601.5 hPa Calm   10.3 km/h 73 % 0 mm
13:24 -17.4 °C -19.9 °C 34601.5 hPa Calm   2.6 km/h 72 % 0 mm
13:29 -17.3 °C -19.9 °C 34601.5 hPa ESE 7.7 km/h 5.1 km/h 71 % 0 mm
13:34 -17.3 °C -20 °C 34601.5 hPa Calm   7.7 km/h 70 % 0 mm
13:39 -17.3 °C -20 °C 34601.5 hPa Calm   7.7 km/h 70 % 0 mm
13:44 -17.3 °C -20 °C 34611.7 hPa Calm   7.7 km/h 70 % 0 mm
13:49 -17.4 °C -20 °C 34601.5 hPa Calm   7.7 km/h 71 % 0 mm
13:54 -17.6 °C -20.1 °C 34601.5 hPa Calm   5.1 km/h 71 % 0 mm
13:59 -17.6 °C -20.2 °C 34601.5 hPa East 2.6 km/h 5.1 km/h 71 % 0 mm
14:04 -17.7 °C -20.2 °C 34601.5 hPa Calm   5.1 km/h 72 % 0 mm
14:09 -17.7 °C -20.1 °C 34611.7 hPa East 2.6 km/h 5.1 km/h 73 % 0 mm
14:14 -17.8 °C -20.2 °C 34611.7 hPa Calm   10.3 km/h 73 % 0 mm
14:19 -17.8 °C -20.2 °C 34611.7 hPa ENE 7.7 km/h 10.3 km/h 73 % 0 mm
14:24 -17.8 °C -20.2 °C 34611.7 hPa Calm   15.6 km/h 72 % 0 mm
14:29 -17.7 °C -20.3 °C 34611.7 hPa Calm   15.6 km/h 71 % 0 mm
14:34 -17.7 °C -20.3 °C 34611.7 hPa Calm   15.6 km/h 71 % 0 mm
14:39 -17.7 °C -20.3 °C 34611.7 hPa Calm   12.9 km/h 71 % 0 mm
14:44 -17.7 °C -20.2 °C 34611.7 hPa NE 2.6 km/h 10.3 km/h 71 % 0 mm
14:49 -17.7 °C -20.2 °C 34611.7 hPa NE 2.6 km/h 10.3 km/h 72 % 0 mm
14:54 -17.7 °C -20.2 °C 34611.7 hPa ENE 2.6 km/h 10.3 km/h 72 % 0 mm
14:59 -17.7 °C -20.2 °C 34611.7 hPa Calm   10.3 km/h 72 % 0 mm
15:04 -17.7 °C -20.2 °C 34625.2 hPa Calm   10.3 km/h 72 % 0 mm
15:09 -17.7 °C -20.1 °C 34625.2 hPa Calm   7.7 km/h 73 % 0 mm
15:14 -17.7 °C -20.2 °C 34625.2 hPa Calm   5.1 km/h 72 % 0 mm
15:19 -17.7 °C -20.2 °C 34625.2 hPa Calm   5.1 km/h 72 % 0 mm
15:24 -17.7 °C -20.2 °C 34635.4 hPa Calm   7.7 km/h 72 % 0 mm
15:29 -17.7 °C -20.2 °C 34635.4 hPa Calm   10.3 km/h 72 % 0 mm
15:34 -17.7 °C -20.2 °C 34635.4 hPa Calm   10.3 km/h 72 % 0 mm
15:39 -17.7 °C -20.2 °C 34635.4 hPa East 2.6 km/h 10.3 km/h 72 % 0 mm
15:44 -17.8 °C -20.2 °C 34635.4 hPa Calm   7.7 km/h 72 % 0 mm
15:49 -17.8 °C -20.3 °C 34645.6 hPa Calm   10.3 km/h 72 % 0 mm
15:54 -17.8 °C -20.3 °C 34645.6 hPa ESE 2.6 km/h 10.3 km/h 72 % 0 mm
15:59 -17.8 °C -20.3 °C 34645.6 hPa ENE 5.1 km/h 10.3 km/h 72 % 0 mm
16:04 -17.8 °C -20.4 °C 34645.6 hPa Calm   10.3 km/h 71 % 0 mm
16:09 -17.8 °C -20.4 °C 34645.6 hPa Calm   15.6 km/h 71 % 0 mm
16:14 -17.8 °C -20.4 °C 34645.6 hPa Calm   15.6 km/h 71 % 0 mm
16:19 -17.8 °C -20.4 °C 34645.6 hPa Calm   15.6 km/h 71 % 0 mm
16:24 -17.8 °C -20.4 °C 34645.6 hPa Calm   10.3 km/h 71 % 0 mm
16:29 -17.8 °C -20.4 °C 34659.1 hPa Calm   10.3 km/h 71 % 0 mm
16:34 -17.9 °C -20.4 °C 34659.1 hPa Calm   10.3 km/h 71 % 0 mm
16:39 -17.9 °C -20.4 °C 34659.1 hPa Calm   10.3 km/h 71 % 0 mm
16:44 -17.9 °C -20.4 °C 34659.1 hPa Calm   5.1 km/h 71 % 0 mm
16:49 -17.9 °C -20.3 °C 34659.1 hPa Calm   5.1 km/h 72 % 0 mm
16:54 -17.9 °C -20.3 °C 34669.3 hPa Calm   7.7 km/h 72 % 0 mm
16:59 -17.9 °C -20.3 °C 34669.3 hPa Calm   7.7 km/h 73 % 0 mm
17:04 -17.9 °C -20.3 °C 34669.3 hPa Calm   7.7 km/h 73 % 0 mm
17:09 -17.9 °C -20.3 °C 34669.3 hPa Calm     73 % 0 mm
17:14 -17.9 °C -20.2 °C 34669.3 hPa Calm     74 % 0 mm
17:19 -17.9 °C -20.2 °C 34682.8 hPa Calm     74 % 0 mm
17:24 -17.9 °C -20.2 °C 34682.8 hPa Calm     74 % 0 mm
17:29 -17.9 °C -20.2 °C 34682.8 hPa Calm     74 % 0 mm
17:34 -17.9 °C -20.2 °C 34682.8 hPa Calm     74 % 0 mm
17:39 -17.9 °C -20.2 °C 34682.8 hPa Calm   2.6 km/h 74 % 0 mm
17:44 -17.9 °C -20.2 °C 34682.8 hPa Calm   5.1 km/h 74 % 0 mm
17:49 -17.9 °C -20.3 °C 34682.8 hPa Calm   5.1 km/h 73 % 0 mm
17:54 -17.9 °C -20.3 °C 34682.8 hPa Calm   7.7 km/h 73 % 0 mm
17:59 -17.9 °C -20.3 °C 34682.8 hPa Calm   7.7 km/h 73 % 0 mm
18:04 -17.9 °C -20.3 °C 34682.8 hPa Calm   7.7 km/h 73 % 0 mm
18:09 -17.9 °C -20.3 °C 34682.8 hPa Calm   5.1 km/h 73 % 0 mm
18:14 -17.9 °C -20.3 °C 34682.8 hPa Calm     73 % 0 mm
18:19 -17.9 °C -20.2 °C 34693 hPa Calm     74 % 0 mm
18:24 -17.9 °C -20.3 °C 34693 hPa Calm     73 % 0 mm
18:29 -17.9 °C -20.3 °C 34693 hPa Calm     73 % 0 mm
18:34 -17.9 °C -20.3 °C 34682.8 hPa Calm     73 % 0 mm
18:39 -17.9 °C -20.2 °C 34682.8 hPa Calm     74 % 0 mm
18:44 -17.9 °C -20.2 °C 34693 hPa Calm     74 % 0 mm
18:49 -18 °C -20.3 °C 34682.8 hPa Calm     74 % 0 mm
18:54 -18 °C -20.3 °C 34693 hPa Calm     74 % 0 mm
18:59 -18 °C -20.3 °C 34693 hPa Calm     74 % 0 mm
19:04 -18 °C -20.3 °C 34693 hPa Calm     74 % 0 mm
19:09 -18 °C -20.3 °C 34693 hPa Calm   5.1 km/h 74 % 0 mm
19:14 -18 °C -20.3 °C 34693 hPa Calm   5.1 km/h 74 % 0 mm
19:19 -18 °C -20.3 °C 34693 hPa Calm   5.1 km/h 74 % 0 mm
19:24 -18 °C -20.3 °C 34693 hPa Calm   5.1 km/h 74 % 0 mm
19:29 -18 °C -20.3 °C 34693 hPa Calm     74 % 0 mm
19:34 -18 °C -20.3 °C 34703.1 hPa Calm     74 % 0 mm
19:39 -18 °C -20.3 °C 34703.1 hPa Calm   2.6 km/h 74 % 0 mm
19:44 -18 °C -20.3 °C 34703.1 hPa Calm   2.6 km/h 74 % 0 mm
19:49 -18 °C -20.3 °C 34703.1 hPa Calm   2.6 km/h 74 % 0 mm
19:54 -18 °C -20.3 °C 34703.1 hPa Calm     74 % 0 mm
19:59 -18 °C -20.3 °C 34703.1 hPa Calm     74 % 0 mm
20:04 -18 °C -20.3 °C 34703.1 hPa Calm     74 % 0 mm
20:09 -18 °C -20.3 °C 34716.7 hPa Calm     74 % 0 mm
20:14 -18 °C -20.3 °C 34716.7 hPa Calm     74 % 0 mm
20:19 -18 °C -20.3 °C 34716.7 hPa Calm     73 % 0 mm
20:24 -18 °C -20.3 °C 34716.7 hPa Calm   7.7 km/h 73 % 0 mm
20:29 -18 °C -20.3 °C 34716.7 hPa Calm   7.7 km/h 74 % 0 mm
20:34 -18 °C -20.3 °C 34716.7 hPa Calm   7.7 km/h 74 % 0 mm
20:39 -18 °C -20.3 °C 34716.7 hPa Calm     74 % 0 mm
20:44 -18 °C -20.2 °C 34716.7 hPa Calm     75 % 0 mm
20:49 -18 °C -20.2 °C 34703.1 hPa Calm     75 % 0 mm
20:54 -18 °C -20.2 °C 34703.1 hPa Calm     75 % 0 mm
20:59 -18 °C -20.2 °C 34703.1 hPa Calm     75 % 0 mm
21:04 -18.1 °C -20.2 °C 34703.1 hPa Calm     75 % 0 mm
21:09 -18.1 °C -20.2 °C 34703.1 hPa Calm     75 % 0 mm
21:14 -18.1 °C -20.3 °C 34703.1 hPa Calm     74 % 0 mm
21:19 -18.1 °C -20.3 °C 34703.1 hPa Calm     74 % 0 mm
21:24 -18.1 °C -20.2 °C 34703.1 hPa Calm     75 % 0 mm
21:29 -18.1 °C -20.2 °C 34703.1 hPa Calm     75 % 0 mm
21:34 -18.1 °C -20.3 °C 34703.1 hPa Calm     75 % 0 mm
21:39 -18.1 °C -20.3 °C 34703.1 hPa Calm     75 % 0 mm
21:44 -18.1 °C -20.3 °C 34703.1 hPa Calm     75 % 0 mm
21:49 -18.1 °C -20.3 °C 34703.1 hPa Calm     75 % 0 mm
21:54 -18.1 °C -20.3 °C 34703.1 hPa Calm     75 % 0 mm
21:59 -18.1 °C -20.2 °C 34703.1 hPa Calm     76 % 0 mm
22:04 -18.1 °C -20.3 °C 34703.1 hPa Calm   2.6 km/h 75 % 0 mm
22:09 -18.1 °C -20.3 °C 34703.1 hPa ESE 15.6 km/h 2.6 km/h 75 % 0 mm
22:14 -18.1 °C -20.3 °C 34693 hPa Calm   15.6 km/h 75 % 0 mm
22:19 -18.1 °C -20.4 °C 34693 hPa Calm   15.6 km/h 74 % 0 mm
22:24 -18.1 °C -20.4 °C 34693 hPa ESE 2.6 km/h 15.6 km/h 74 % 0 mm
22:29 -18.1 °C -20.4 °C 34693 hPa Calm   5.1 km/h 74 % 0 mm
22:34 -18.1 °C -20.4 °C 34693 hPa Calm   5.1 km/h 74 % 0 mm
22:39 -18.1 °C -20.4 °C 34693 hPa Calm   5.1 km/h 74 % 0 mm
22:44 -18.1 °C -20.4 °C 34703.1 hPa Calm   2.6 km/h 74 % 0 mm
Météo
Compliments of Weather Underground - 2 mb

Script développé par  Jim McMurry - jmcmurry@mwt.net Adapté pour le modèle par  Wim van der Kuil - Leuven-Template.eu

Vous trouverez notre info météo Également à:

Weather Underground

Équipement que nous utilisons:

Station de Météo
Davis VP2

Programme Météo
Meteohub

Ordinateur Météo
RaspberryPI 2

Provider
OVH

Davis VP2

Meteohub

RaspberryPI 2

OVH